OK2ZA-6 Weather Reports


Display with metric or nautical units.
time (UTC)temp
F
wind
direction
speed
MPH
gust
MPH
rain 1hr
in
rain 24hr
in
rain mn
in
humidity
%
barometer
mb
20260503021003 55 85 6.0 11.0 0.00 0.00 0.00 51 1018.4
20260503020003 53 86 3.0 10.0 0.00 0.00 0.00 54 1018.4
20260503015004 54 65 3.0 4.0 0.00 0.00 0.00 54 1018.3
20260503014003 54 74 1.0 4.0 0.00 0.00 0.00 53 1018.3
20260503013003 54 0 0.0 0.0 0.00 0.00 0.00 52 1018.3
20260503012004 54 84 0.0 2.0 0.00 0.00 0.00 52 1018.4
20260503011004 54 84 2.0 4.0 0.00 0.00 0.00 52 1018.4
20260503010004 54 78 3.0 5.0 0.00 0.00 0.00 52 1018.4
20260503005003 55 71 3.0 5.0 0.00 0.00 0.00 51 1018.4
20260503004003 56 64 2.0 4.0 0.00 0.00 0.00 51 1018.5
20260503003004 56 69 3.0 5.0 0.00 0.00 0.00 51 1018.6
20260503002004 55 74 3.0 5.0 0.00 0.00 0.00 52 1018.6
20260503001004 55 77 3.0 6.0 0.00 0.00 0.00 52 1018.7
20260503000004 55 75 3.0 5.0 0.00 0.00 0.00 51 1018.7
20260502235003 56 77 3.0 6.0 0.00 0.00 0.00 50 1018.8
20260502234003 56 73 3.0 5.0 0.00 0.00 0.00 50 1018.9
20260502233004 56 72 3.0 6.0 0.00 0.00 0.00 50 1018.9
20260502232004 56 73 3.0 5.0 0.00 0.00 0.00 50 1019.0
20260502231004 56 72 4.0 6.0 0.00 0.00 0.00 50 1019.0
20260502230004 56 74 4.0 7.0 0.00 0.00 0.00 51 1019.1
20260502225003 56 72 3.0 5.0 0.00 0.00 0.00 51 1019.1
20260502224003 56 73 4.0 7.0 0.00 0.00 0.00 51 1019.2
20260502223004 56 77 4.0 7.0 0.00 0.00 0.00 52 1019.2
20260502222003 56 75 4.0 6.0 0.00 0.00 0.00 52 1019.3
20260502221003 56 76 4.0 5.0 0.00 0.00 0.00 52 1019.4
20260502220005 57 76 4.0 7.0 0.00 0.00 0.00 51 1019.3
20260502215003 57 75 4.0 7.0 0.00 0.00 0.00 51 1019.4
20260502214003 57 74 3.0 6.0 0.00 0.00 0.00 50 1019.3
20260502213003 58 78 4.0 5.0 0.00 0.00 0.00 49 1019.5
20260502212004 58 83 3.0 6.0 0.00 0.00 0.00 48 1019.5
20260502211003 58 85 3.0 6.0 0.00 0.00 0.00 48 1019.5
20260502210004 58 83 3.0 4.0 0.00 0.00 0.00 48 1019.5
20260502205003 58 79 2.0 4.0 0.00 0.00 0.00 46 1019.7
20260502204003 58 78 3.0 4.0 0.00 0.00 0.00 46 1019.7
20260502203003 59 82 2.0 3.0 0.00 0.00 0.00 45 1019.8
20260502202003 59 85 1.0 3.0 0.00 0.00 0.00 45 1019.7
20260502201003 59 0 0.0 0.0 0.00 0.00 0.00 45 1019.8
20260502200003 59 0 0.0 0.0 0.00 0.00 0.00 44 1019.9
20260502195003 60 93 0.0 3.0 0.00 0.00 0.00 44 1019.9
20260502194004 60 93 1.0 3.0 0.00 0.00 0.00 44 1019.9
20260502193003 60 93 2.0 3.0 0.00 0.00 0.00 44 1020.0
20260502192003 60 93 1.0 2.0 0.00 0.00 0.00 44 1019.9
20260502191004 61 100 1.0 4.0 0.00 0.00 0.00 43 1020.0
20260502190004 62 100 1.0 3.0 0.00 0.00 0.00 42 1019.9
20260502185003 63 108 2.0 4.0 0.00 0.00 0.00 41 1019.8
20260502184004 63 97 1.0 4.0 0.00 0.00 0.00 41 1019.8
20260502183003 64 85 1.0 3.0 0.00 0.00 0.00 41 1019.7
20260502182003 65 96 2.0 4.0 0.00 0.00 0.00 40 1019.6
20260502181003 65 105 3.0 6.0 0.00 0.00 0.00 38 1019.5
20260502164003 70 177 2.0 7.0 0.00 0.00 0.00 33 1019.7
20260502163003 70 100 2.0 4.0 0.00 0.00 0.00 32 1019.9
20260502162004 71 172 4.0 12.0 0.00 0.00 0.00 32 1019.9
20260502161003 71 197 4.0 9.0 0.00 0.00 0.00 32 1020.0
20260502152003 71 130 2.0 6.0 0.00 0.00 0.00 33 1020.5
20260502151004 71 102 5.0 9.0 0.00 0.00 0.00 31 1020.6
20260502123004 70 189 6.0 9.0 0.00 0.00 0.00 37 1022.3
20260502122003 70 215 6.0 11.0 0.00 0.00 0.00 38 1022.4
20260502121004 71 219 4.0 12.0 0.00 0.00 0.00 35 1022.2
20260502115003 71 13 3.0 10.0 0.00 0.00 0.00 32 1022.7
20260502114003 71 247 3.0 11.0 0.00 0.00 0.00 34 1022.8
20260502113004 70 263 2.0 7.0 0.00 0.00 0.00 33 1023.0
20260502112003 69 90 2.0 7.0 0.00 0.00 0.00 33 1023.1
20260502111007 69 85 3.0 10.0 0.00 0.00 0.00 32 1023.3
20260502110003 69 35 4.0 10.0 0.00 0.00 0.00 37 1023.3
20260502105004 70 336 3.0 11.0 0.00 0.00 0.00 33 1023.5
20260502104004 68 30 6.0 11.0 0.00 0.00 0.00 36 1023.6
20260502103004 68 46 4.0 8.0 0.00 0.00 0.00 37 1023.7
20260502102003 68 205 3.0 9.0 0.00 0.00 0.00 39 1023.8
20260502101003 68 241 3.0 10.0 0.00 0.00 0.00 39 1023.9
20260502091004 66 154 4.0 14.0 0.00 0.00 0.00 40 1024.5
20260502071003 61 230 4.0 7.0 0.00 0.00 0.00 56 1025.1
20260502070004 61 235 2.0 5.0 0.00 0.00 0.00 59 1025.1
20260502065003 60 247 1.0 3.0 0.00 0.00 0.00 61 1025.1
20260502064003 58 256 1.0 4.0 0.00 0.00 0.00 63 1025.1
20260502063004 58 271 3.0 4.0 0.00 0.00 0.00 65 1025.1
20260502062003 57 260 3.0 4.0 0.00 0.00 0.00 62 1025.0
20260502061003 58 308 1.0 2.0 0.00 0.00 0.00 62 1025.0
20260502060004 56 304 2.0 4.0 0.00 0.00 0.00 65 1025.0
20260502055004 54 310 2.0 3.0 0.00 0.00 0.00 69 1025.0
20260502054003 52 310 1.0 3.0 0.00 0.00 0.00 69 1025.1
20260502053003 51 310 0.0 2.0 0.00 0.00 0.00 69 1025.1
20260502052003 50 306 1.0 3.0 0.00 0.00 0.00 68 1025.1
20260502051003 50 0 0.0 0.0 0.00 0.00 0.00 71 1025.0
20260502050003 50 333 0.0 2.0 0.00 0.00 0.00 71 1025.0
20260502045005 49 333 1.0 3.0 0.00 0.00 0.00 73 1024.9
20260502044003 48 330 3.0 4.0 0.00 0.00 0.00 74 1024.8
20260502043003 47 325 5.0 6.0 0.00 0.00 0.00 73 1024.8
20260502042003 46 330 5.0 6.0 0.00 0.00 0.00 73 1024.8
20260502041003 46 333 4.0 8.0 0.00 0.00 0.00 74 1024.7
20260502040004 45 328 6.0 8.0 0.00 0.00 0.00 74 1024.7
20260502035003 45 335 5.0 8.0 0.00 0.00 0.00 75 1024.6
20260502034003 45 333 5.0 6.0 0.00 0.00 0.00 74 1024.6
20260502033003 45 325 4.0 6.0 0.00 0.00 0.00 74 1024.6
20260502032003 45 335 4.0 6.0 0.00 0.00 0.00 73 1024.6
20260502031003 45 326 5.0 8.0 0.00 0.00 0.00 73 1024.6
20260502030003 45 336 4.0 6.0 0.00 0.00 0.00 73 1024.6
20260502025003 46 334 4.0 6.0 0.00 0.00 0.00 73 1024.7
20260502024003 46 337 4.0 8.0 0.00 0.00 0.00 73 1024.8
20260502023004 45 337 4.0 6.0 0.00 0.00 0.00 74 1024.9
20260502022003 45 343 4.0 5.0 0.00 0.00 0.00 74 1024.8